Lafayette, IN

11:02 AM EDT on September 21, 2017 (GMT -0400)
Purdue Univ

Weather History for KLAF - December, 2013

Change the Weather History Date:

Monday, December 9, 2013

  Actual Average Record
Temperature  
Mean Temperature 20 °F 32 °F  
Max Temperature 25 °F 40 °F 56 °F (1987)
Min Temperature 15 °F 25 °F -1 °F (1977)
Degree Days  
Heating Degree Days 45 33  
Month to date heating degree days 298 280  
Since 1 July heating degree days 1474 1381  
Cooling Degree Days 0 0  
Month to date cooling degree days 0 0  
Year to date cooling degree days 884 983  
Moisture  
Dew Point 17 °F    
Average Humidity 79    
Maximum Humidity 92    
Minimum Humidity 65    
Precipitation  
Precipitation T in 0.08 in 0.56 in (2007)
Month to date precipitation 0.11 0.84  
Year to date precipitation 37.59 34.91  
Sea Level Pressure  
Sea Level Pressure 30.13 in    
Wind  
Wind Speed 13 mph (West)    
Max Wind Speed 20 mph    
Max Gust Speed 31 mph    
Visibility 8 miles    
Events Snow    
T = Trace of Precipitation, MM = Missing Value Source: NWS Daily Summary

Daily Weather History Graph

Daily Weather History Graph

Search for Another Location

Airport or City:

Trip Planner

Search our weather history database for the weather conditions in past years. The results will help you decide how hot, cold, wet, or windy it might be!

Date:

Astronomy

Dec. 09, 2013 Rise Set
Actual Time 7:59 AM EST 5:21 PM EST
Civil Twilight 7:28 AM EST 5:51 PM EST
Nautical Twilight 6:54 AM EST 6:25 PM EST
Astronomical Twilight 6:21 AM EST 6:58 PM EST
Moon 12:51 PM EST (12/9) 12:10 AM EST (12/9)
Length of Visible Light 10h 23m
Length of Day
9h 21m
Waxing Crescent, 51% of the Moon is Illuminated
Dec 9
Waxing Crescent
Dec 17
Full
Dec 25
Last Quarter
Jan 1
New
Jan 7
First Quarter

Hourly Weather History & Observations

Time (EST) Temp. Windchill Dew Point Humidity Pressure Visibility Wind Dir Wind Speed Gust Speed Precip Events Conditions
12:54 AM 27.0 °F 18.0 °F 25.0 °F 92% 30.00 in 10.0 mi WSW 9.2 mph - N/A   Overcast
1:15 AM 26.6 °F 16.2 °F 24.8 °F 93% 29.98 in 5.0 mi WSW 11.5 mph - 0.00 in Snow Light Snow
1:54 AM 26.1 °F 15.0 °F 24.1 °F 92% 30.00 in 2.5 mi WSW 12.7 mph - 0.00 in Snow Light Snow
2:13 AM 26.6 °F 18.2 °F 24.8 °F 93% 29.98 in 3.0 mi WSW 8.1 mph - 0.00 in Snow Light Snow
2:34 AM 26.6 °F 14.7 °F 23.0 °F 86% 29.99 in 9.0 mi WSW 15.0 mph 21.9 mph 0.00 in   Overcast
2:54 AM 26.1 °F 16.2 °F 21.9 °F 84% 30.02 in 10.0 mi WSW 10.4 mph - 0.00 in   Overcast
3:22 AM 26.6 °F 14.3 °F 21.2 °F 80% 30.01 in 10.0 mi West 16.1 mph - N/A   Overcast
3:29 AM 24.8 °F 11.9 °F 21.2 °F 86% 30.01 in 10.0 mi West 16.1 mph 20.7 mph N/A   Overcast
3:54 AM 25.0 °F 14.2 °F 21.9 °F 88% 30.04 in 10.0 mi WSW 11.5 mph 21.9 mph N/A   Overcast
4:54 AM 25.0 °F 13.1 °F 21.9 °F 88% 30.05 in 10.0 mi West 13.8 mph - N/A   Overcast
5:54 AM 25.0 °F 12.2 °F 21.9 °F 88% 30.07 in 7.0 mi West 16.1 mph - N/A   Overcast
6:42 AM 24.8 °F 13.4 °F 19.4 °F 80% 30.05 in 9.0 mi West 12.7 mph 23.0 mph N/A   Overcast
6:54 AM 24.1 °F 12.0 °F 19.0 °F 81% 30.08 in 10.0 mi West 13.8 mph - N/A   Overcast
7:54 AM 24.1 °F 11.0 °F 18.0 °F 77% 30.11 in 10.0 mi West 16.1 mph 25.3 mph N/A   Overcast
8:54 AM 23.0 °F 9.6 °F 16.0 °F 74% 30.14 in 7.0 mi West 16.1 mph 23.0 mph 0.00 in Snow Light Snow
9:38 AM 23.0 °F 10.1 °F 17.6 °F 80% 30.15 in 2.5 mi West 15.0 mph 21.9 mph 0.00 in Snow Light Snow
9:46 AM 23.0 °F 12.4 °F 17.6 °F 80% 30.15 in 4.0 mi West 10.4 mph - 0.00 in Snow Light Snow
9:54 AM 23.0 °F 10.6 °F 17.1 °F 78% 30.18 in 6.0 mi West 13.8 mph - 0.00 in Snow Light Snow
11:54 AM 24.8 °F 11.9 °F 17.6 °F 74% 30.17 in 7.0 mi West 16.1 mph 20.7 mph N/A   Overcast
12:52 PM 24.8 °F 12.4 °F 15.8 °F 69% 30.19 in 10.0 mi West 15.0 mph 24.2 mph N/A   Overcast
12:54 PM 24.1 °F 10.6 °F 15.1 °F 69% 30.19 in 10.0 mi West 17.3 mph - N/A   Mostly Cloudy
1:54 PM 24.1 °F 10.1 °F 15.1 °F 69% 30.18 in 10.0 mi West 18.4 mph 26.5 mph N/A   Overcast
2:15 PM 24.1 °F 11.0 °F 15.1 °F 69% 30.18 in 10.0 mi West 16.1 mph - N/A   Scattered Clouds
2:54 PM 23.0 °F 8.3 °F 12.9 °F 65% 30.19 in 10.0 mi West 19.6 mph 26.5 mph N/A   Partly Cloudy
3:54 PM 21.0 °F 7.1 °F 12.0 °F 68% 30.20 in 10.0 mi West 16.1 mph 23.0 mph N/A   Clear
4:54 PM 19.9 °F 6.7 °F 10.9 °F 68% 30.21 in 10.0 mi West 13.8 mph - N/A   Clear
5:54 PM 19.0 °F 9.0 °F 10.9 °F 71% 30.23 in 10.0 mi West 8.1 mph - N/A   Clear
6:54 PM 19.0 °F 9.0 °F 10.9 °F 71% 30.23 in 10.0 mi West 8.1 mph - N/A   Partly Cloudy
7:54 PM 18.0 °F 7.7 °F 10.9 °F 74% 30.24 in 10.0 mi West 8.1 mph - N/A   Partly Cloudy
8:54 PM 18.0 °F 7.7 °F 10.0 °F 71% 30.23 in 10.0 mi WNW 8.1 mph - N/A   Mostly Cloudy
9:54 PM 17.1 °F 4.3 °F 8.1 °F 68% 30.23 in 10.0 mi WNW 11.5 mph - N/A   Overcast
10:54 PM 16.0 °F 3.6 °F 9.0 °F 74% 30.22 in 10.0 mi West 10.4 mph - N/A   Overcast
11:54 PM 15.1 °F 3.3 °F 3.9 °F 61% 30.23 in 10.0 mi West 9.2 mph - N/A   Overcast